Change the Weather History Date:

Sunday, March 3, 2013

  Actual Average Record
Temperature  
Mean Temperature 38 °F -  
Max Temperature 48 °F 50 °F - ()
Min Temperature 27 °F 32 °F - ()
Degree Days  
Heating Degree Days 28    
Moisture  
Dew Point 30 °F    
Average Humidity 70    
Maximum Humidity 93    
Minimum Humidity 35    
Precipitation  
Precipitation 0.01 in 0.05 in - ()
Sea Level Pressure  
Sea Level Pressure 30.01 in    
Wind  
Wind Speed 5 mph ()    
Max Wind Speed 18 mph    
Max Gust Speed -    
Visibility 6.6 miles    
Events Rain    
T = Trace of Precipitation, MM = Missing Value Source: Averaged Metar Reports

Daily Weather History Graph

Daily Weather History Graph

Search for Another Location

Airport or City:

Trip Planner

Search our weather history database for the weather conditions in past years. The results will help you decide how hot, cold, wet, or windy it might be!

Date:

Astronomy

Mar. 03, 2013 Rise Set
Actual Time 5:52 AM EET 5:16 PM EET
Civil Twilight 5:25 AM EET 5:43 PM EET
Nautical Twilight 4:53 AM EET 6:14 PM EET
Astronomical Twilight 4:22 AM EET 6:45 PM EET
Moon 11:35 PM EET (3/3) 8:50 AM EET (3/3)
Length of Visible Light 12h 17m
Length of Day
11h 23m
Waning Gibbous, 67% of the Moon is Illuminated
Mar 3
Waning Gibbous
Mar 4
Last Quarter
Mar 11
New
Mar 19
First Quarter
Mar 27
Full

Hourly Weather History & Observations

Time (EET) Temp. Windchill Dew Point Humidity Pressure Visibility Wind Dir Wind Speed Gust Speed Precip Events Conditions
12:50 AM 28.4 °F - 26.6 °F 93% 30.06 in 6.2 mi Variable 1.2 mph - N/A   Scattered Clouds
1:50 AM 30.2 °F 25.4 °F 26.6 °F 86% 30.09 in 6.2 mi NW 4.6 mph - N/A   Mostly Cloudy
2:00 AM 30 °F - 26 °F 81%  in 12 mi NW 4.6 mph - -   Partly Cloudy
2:50 AM 30.2 °F - 26.6 °F 86% 30.06 in 6.2 mi NW 1.2 mph - N/A   Mostly Cloudy
3:50 AM 30.2 °F - 26.6 °F 86% 30.06 in 6.2 mi Variable 1.2 mph - N/A   Mostly Cloudy
4:50 AM 28.4 °F - 26.6 °F 93% 30.06 in 6.2 mi Variable 1.2 mph - N/A   Mostly Cloudy
5:50 AM 28.4 °F - 26.6 °F 93% 30.06 in 6.2 mi Variable 1.2 mph - N/A   Mostly Cloudy
6:50 AM 30.2 °F - 28.4 °F 93% 30.06 in 6.2 mi Variable 1.2 mph - N/A   Mostly Cloudy
7:50 AM 33.8 °F - 30.2 °F 87% 30.09 in 6.2 mi Variable 1.2 mph - N/A   Mostly Cloudy
8:00 AM 34 °F - 29 °F 76%  in 8 mi SSE 1.2 mph - -   Partly Cloudy
8:50 AM 37.4 °F - 30.2 °F 75% 30.09 in 6.2 mi Variable 1.2 mph - N/A   Mostly Cloudy
9:50 AM 42.8 °F - 28.4 °F 57% 30.09 in 6.2 mi Calm Calm - N/A   Mostly Cloudy
10:50 AM 44.6 °F - 28.4 °F 53% 30.06 in 6.2 mi Variable 2.3 mph - N/A   Mostly Cloudy
11:50 AM 46.4 °F 45.2 °F 30.2 °F 53% 30.04 in 6.2 mi SE 3.5 mph - N/A   Mostly Cloudy
12:50 PM 48.2 °F - 30.2 °F 50% 30.01 in 6.2 mi ESE 11.5 mph - N/A   Mostly Cloudy
1:50 PM 48.2 °F - 28.4 °F 46% 30.01 in 6.2 mi ESE 11.5 mph - N/A   Mostly Cloudy
2:00 PM 47 °F - 28 °F 35%  in 12 mi ESE 11.5 mph - -   Partly Cloudy
2:50 PM 44.6 °F 37.4 °F 30.2 °F 57% 30.01 in 6.2 mi SE 16.1 mph - N/A   Mostly Cloudy
3:50 PM 44.6 °F 36.9 °F 32.0 °F 61% 29.98 in 6.2 mi SE 18.4 mph - N/A   Mostly Cloudy
4:50 PM 44.6 °F 37.4 °F 32.0 °F 61% 29.98 in 6.2 mi SE 16.1 mph - N/A   Overcast
5:07 PM 42.8 °F 35.1 °F 32.0 °F 66% 29.98 in 6.2 mi SE 16.1 mph - N/A Rain Light Rain
5:29 PM 42.8 °F 35.1 °F 32.0 °F 66% 29.98 in 6.2 mi ESE 16.1 mph - N/A   Overcast
5:50 PM 42.8 °F 35.4 °F 32.0 °F 66% 29.98 in 6.2 mi SE 15.0 mph - N/A   Overcast
6:50 PM 41.0 °F 33.9 °F 32.0 °F 70% 29.95 in 6.2 mi SSE 12.7 mph - N/A   Mostly Cloudy
7:50 PM 42.8 °F 35.8 °F 32.0 °F 66% 29.95 in 6.2 mi SSE 13.8 mph - N/A Rain Light Rain
8:00 PM 42 °F - 32 °F 58%  in 6 mi SSE 13.8 mph - - Rain Light Rain
8:50 PM 42.8 °F 35.1 °F 32.0 °F 66% 29.95 in 6.2 mi SE 16.1 mph - N/A Rain Light Rain
9:06 PM 42.8 °F 38.6 °F 32.0 °F 66% 29.95 in 6.2 mi SE 6.9 mph - N/A   Mostly Cloudy
9:50 PM 42.8 °F - 32.0 °F 66% 29.95 in 6.2 mi WNW 1.2 mph - N/A   Mostly Cloudy
10:50 PM 41.0 °F - 33.8 °F 76% 29.92 in 6.2 mi Variable 1.2 mph - N/A   Mostly Cloudy
11:50 PM 42.8 °F - 33.8 °F 70% 29.92 in 6.2 mi SE 2.3 mph - N/A   Mostly Cloudy